, AK

(GMT )
Deadhorse

Weather History for PASC - May, 2014

Change the Weather History Date:

Friday, May 23, 2014

  Actual Average Record
Temperature  
Mean Temperature 22 °F -  
Max Temperature 24 °F 28 °F 43 °F (1992)
Min Temperature 17 °F 19 °F 9 °F (2001)
Degree Days  
Heating Degree Days 44    
Moisture  
Dew Point 15 °F    
Average Humidity 79    
Maximum Humidity 89    
Minimum Humidity 65    
Precipitation  
Precipitation 0.00 in - - ()
Sea Level Pressure  
Sea Level Pressure 30.10 in    
Wind  
Wind Speed 11 mph (ENE)    
Max Wind Speed 14 mph    
Max Gust Speed -    
Visibility 7 miles    
Events Snow    
Averages and records for this station are not official NWS values.
T = Trace of Precipitation, MM = Missing Value Source: NWS Daily Summary

Daily Weather History Graph

Daily Weather History Graph

Search for Another Location

Airport or City:

Trip Planner

Search our weather history database for the weather conditions in past years. The results will help you decide how hot, cold, wet, or windy it might be!

Date:

Astronomy

May. 23, 2014 Rise Set
Actual Time 2:23 AM AKDT 1:18 AM AKDT
Civil Twilight Sun does not set Sun does not set
Nautical Twilight Sun does not set Sun does not set
Astronomical Twilight Sun does not set Sun does not set
Moon 3:21 AM AKDT (5/23) 4:43 PM AKDT (5/23)
Length of Visible Light 24h 00m
Length of Day
22h 55m
Waning Crescent, 25% of the Moon is Illuminated
May 23
Waning Crescent
May 28
New
Jun 5
First Quarter
Jun 12
Full
Jun 19
Last Quarter

Hourly Weather History & Observations

Time (AKDT) Temp. Windchill Dew Point Humidity Pressure Visibility Wind Dir Wind Speed Gust Speed Precip Events Conditions
12:24 AM 23.0 °F 11.7 °F 19.9 °F 88% 30.07 in 2.0 mi NE 11.5 mph - 0.00 in Snow Light Snow
12:35 AM 23.0 °F 11.7 °F 19.0 °F 85% 30.07 in 5.0 mi NE 11.5 mph - 0.00 in   Mostly Cloudy
12:53 AM 23.0 °F 13.1 °F 19.9 °F 88% 30.07 in 2.5 mi NNE 9.2 mph - 0.00 in Snow Light Snow
1:01 AM 23.0 °F 13.1 °F 19.0 °F 85% 30.07 in 3.0 mi NE 9.2 mph - 0.00 in Snow Light Snow
1:22 AM 23.0 °F 12.4 °F 19.0 °F 85% 30.07 in 7.0 mi NE 10.4 mph - 0.00 in   Mostly Cloudy
1:46 AM 23.0 °F 11.7 °F 19.0 °F 85% 30.07 in 10.0 mi ENE 11.5 mph - 0.00 in   Overcast
1:53 AM 21.9 °F 9.8 °F 19.0 °F 89% 30.07 in 10.0 mi ENE 12.7 mph - 0.00 in   Overcast
2:53 AM 21.0 °F 8.1 °F 18.0 °F 88% 30.08 in 6.0 mi ENE 13.8 mph - 0.00 in Snow Light Snow
3:53 AM 19.9 °F 6.7 °F 16.0 °F 85% 30.08 in 10.0 mi ENE 13.8 mph - 0.00 in   Overcast
4:20 AM 19.9 °F 7.3 °F 15.1 °F 81% 30.08 in 10.0 mi ENE 12.7 mph - N/A   Overcast
4:53 AM 19.0 °F 6.1 °F 15.1 °F 85% 30.09 in 5.0 mi ENE 12.7 mph - 0.00 in Snow Light Snow
5:19 AM 19.0 °F 5.6 °F 16.0 °F 88% 30.09 in 2.5 mi ENE 13.8 mph - 0.00 in Snow Light Snow
5:31 AM 19.0 °F 6.8 °F 16.0 °F 88% 30.09 in 2.5 mi ENE 11.5 mph - 0.00 in Snow Light Snow
5:53 AM 19.0 °F 5.6 °F 15.1 °F 85% 30.09 in 2.5 mi ENE 13.8 mph - 0.00 in Snow Light Snow
5:58 AM 19.0 °F 6.1 °F 15.1 °F 85% 30.09 in 3.0 mi ENE 12.7 mph - 0.00 in Snow Light Snow
6:53 AM 19.0 °F 6.8 °F 16.0 °F 88% 30.10 in 3.0 mi ENE 11.5 mph - 0.00 in Snow Light Snow
7:20 AM 19.9 °F 9.3 °F 16.0 °F 85% 30.09 in 5.0 mi ENE 9.2 mph - 0.00 in Snow Light Snow
7:53 AM 19.9 °F 8.6 °F 15.1 °F 81% 30.10 in 6.0 mi ENE 10.4 mph - 0.00 in Snow Light Snow
8:53 AM 19.9 °F 7.3 °F 15.1 °F 81% 30.10 in 7.0 mi ENE 12.7 mph - 0.00 in   Overcast
9:53 AM 19.9 °F 7.9 °F 15.1 °F 81% 30.10 in 10.0 mi ENE 11.5 mph - N/A   Overcast
10:53 AM 19.9 °F 8.6 °F 12.0 °F 71% 30.11 in 10.0 mi ENE 10.4 mph - N/A   Overcast
11:53 AM 21.0 °F 9.9 °F 12.0 °F 68% 30.11 in 10.0 mi ENE 10.4 mph - N/A   Overcast
12:53 PM 21.9 °F 11.0 °F 12.0 °F 66% 30.12 in 10.0 mi ENE 10.4 mph - N/A   Mostly Cloudy
1:53 PM 21.9 °F 10.4 °F 14.0 °F 72% 30.12 in 10.0 mi ENE 11.5 mph - N/A   Mostly Cloudy
2:53 PM 23.0 °F 12.4 °F 15.1 °F 72% 30.12 in 10.0 mi ENE 10.4 mph - N/A   Mostly Cloudy
3:53 PM 24.1 °F 14.4 °F 14.0 °F 65% 30.12 in 10.0 mi NE 9.2 mph - N/A   Overcast
4:09 PM 23.0 °F 13.1 °F 15.1 °F 72% 30.11 in 10.0 mi ENE 9.2 mph - N/A   Overcast
4:19 PM 23.0 °F 13.1 °F 14.0 °F 68% 30.11 in 10.0 mi ENE 9.2 mph - N/A   Mostly Cloudy
4:53 PM 23.0 °F 11.7 °F 12.9 °F 65% 30.12 in 10.0 mi ENE 11.5 mph - N/A   Mostly Cloudy
5:24 PM 23.0 °F 12.4 °F 14.0 °F 68% 30.11 in 10.0 mi ENE 10.4 mph - N/A   Mostly Cloudy
5:53 PM 23.0 °F 12.4 °F 14.0 °F 68% 30.12 in 10.0 mi NE 10.4 mph - N/A   Mostly Cloudy
6:40 PM 21.9 °F 12.5 °F 12.9 °F 68% 30.10 in 10.0 mi East 8.1 mph - N/A   Scattered Clouds
6:53 PM 23.0 °F 15.8 °F 14.0 °F 68% 30.12 in 10.0 mi NE 5.8 mph - N/A   Partly Cloudy
7:53 PM 23.0 °F 13.9 °F 14.0 °F 68% 30.12 in 10.0 mi ENE 8.1 mph - N/A   Scattered Clouds
8:53 PM 21.9 °F 12.5 °F 15.1 °F 75% 30.12 in 6.0 mi East 8.1 mph - 0.00 in Snow Light Snow
9:39 PM 21.0 °F 11.4 °F 16.0 °F 81% 30.11 in 2.0 mi East 8.1 mph - 0.00 in Snow Light Snow
9:53 PM 21.0 °F 12.4 °F 16.0 °F 81% 30.12 in 3.0 mi East 6.9 mph - 0.00 in Snow Light Snow
10:53 PM 19.9 °F 11.1 °F 15.1 °F 81% 30.11 in 7.0 mi East 6.9 mph - 0.00 in Snow Light Snow
11:53 PM 17.1 °F 8.7 °F 12.9 °F 84% 30.12 in 10.0 mi East 5.8 mph - 0.00 in   Mostly Cloudy